Tracking 29065 objects as of 22-Jul-2024
HD Live streaming from Space Station
objects crossing your sky now

CZ-6 R/B

Track CZ-6 R/B now!
10-day predictions


NORAD ID: 49061
Int'l Code: 2021-070C
Perigee: 588.8 km
Apogee: 894.3 km
Inclination: 89.0 °
Period: 99.5 minutes
Semi major axis: 7112 km
RCS: Unknown
Launch date: August 4, 2021
Source: People's Republic of China (PRC)
Launch site: Taiyaun Space Center, China (TSC)

Note: This is a ROCKET BODY
Your satellite tracking list
Your tracking list is empty




NASA's NSSDC Master Catalog

Two Line Element Set (TLE):
1 49061U 21070C   24203.78779187  .00000755  00000-0  15071-3 0  9999
2 49061  89.0312 290.2718 0214757 343.9889  15.4596 14.47320668156467
Source of the keplerian elements: AFSPC